星链-32029 (STARLINK-32029)

导读 | 星芒AI

STARLINK-32029 是 SpaceX Starlink 卫星互联网项目中的一颗低轨卫星,属于第三代星链卫星(v1.5)。该卫星于2023年发射,运行在约540公里高度的近地轨道,旨在为全球用户提供高速、低延迟的互联网服务。它采用先进推进系统和激光通信技术,支持星间链路,提升网络效率与覆盖范围。作为星链星座的一部分,STARLINK-32029 有助于扩大 SpaceX 在全球宽带市场的影响力,并推动偏远地区互联网接入的普及。

基本信息
目录编号:
60145
目录名称:
STARLINK-32029
国际标识:
2024-120L
轨道中心:
EARTH
卫星名称:
星链-32029
卫星全名:
星链-32029 (STARLINK-32029)
卫星状态:
在轨 (已飞行541 天)
发射日期:
2024-06-27 UTC
国别 :
美国 (US)
星等 :
--
轨道信息
数据来源 国际轨道数据 AOE轨道数据
星历时间 2025-12-20T01:37:02+0800
10小时前
查看轨道信息
2025-12-16T04:00:00+0800
4天前
查看轨道信息
半长轴 6853.402km 6853.292km
偏心率 0.000129 0.0001071
轨道倾角 53.162° 53.160°
近地点辐角 90.382° 69.072°
升交点赤经 331.379° 349.498°
平近点角 269.733° 31.242°
近地点 474.38km 474.423km
远地点 476.15km 475.891km
周期 94.106分钟 94.104分钟
每日圈数 15.301836 15.302202
详细信息
固有亮度:
5
最大亮度:
2.5
卫星平台:
Starlink V1.0
覆盖范围:
全球
运营商:
太空探索技术公司
运营商所在国:
美国
制造商(研发单位):
太空探索技术公司
制造商所在国:
美国
使用方式:
暂无
卫星简介
Starlink 计划是 SpaceX 推出的全球卫星互联网项目,通过发射低轨道卫星,为全球尤其是偏远地区提供高速、低延迟的互联网服务。自 2019 年起,Starlink 已部署数千颗卫星,旨在缩小全球数字鸿沟,推动互联网普及。该项目还为军事、航空等行业提供通信支持,带来广泛经济效益。
2D轨道图
3D轨道图
轨道高度分析图
轨道倾角分析图
轨道综合分析图
查看轨道综合分析图